Time,TemperatureF,DewpointF,PressureIn,WindDirection,WindDirectionDegrees,WindSpeedMPH,WindSpeedGustMPH,Humidity,HourlyPrecipIn,Conditions,Clouds,dailyrainin,SoftwareType,DateUTC
2013-10-21 00:01:00,54.0,43.3,29.93,SSW,195,8.0,8.0,67,0.00,,,0.00,Wunderground v.1.15,2013-10-21 04:01:00,
2013-10-21 00:02:00,54.0,43.3,29.93,South,190,8.0,8.0,67,0.00,,,0.00,Wunderground v.1.15,2013-10-21 04:02:00,
2013-10-21 00:03:00,54.0,43.3,29.93,SSW,195,8.0,9.0,67,0.00,,,0.00,Wunderground v.1.15,2013-10-21 04:03:00,
2013-10-21 00:05:00,53.9,43.2,29.93,SW,217,7.0,10.0,67,0.00,,,0.00,Wunderground v.1.15,2013-10-21 04:05:00,
2013-10-21 00:11:00,53.9,43.2,29.93,SW,222,8.0,8.0,67,0.00,,,0.00,Wunderground v.1.15,2013-10-21 04:11:00,
2013-10-21 00:13:00,53.8,43.1,29.93,South,169,8.0,9.0,67,0.00,,,0.00,Wunderground v.1.15,2013-10-21 04:13:00,
2013-10-21 00:19:00,53.7,43.4,29.93,SW,236,7.0,9.0,68,0.00,,,0.00,Wunderground v.1.15,2013-10-21 04:19:00,
2013-10-21 00:23:00,53.7,43.4,29.93,SSE,160,7.0,7.0,68,0.00,,,0.00,Wunderground v.1.15,2013-10-21 04:23:00,
2013-10-21 00:29:00,53.7,43.4,29.93,SSW,199,7.0,10.0,68,0.00,,,0.00,Wunderground v.1.15,2013-10-21 04:29:00,
2013-10-21 00:34:00,53.7,43.4,29.93,SW,221,7.0,11.0,68,0.00,,,0.00,Wunderground v.1.15,2013-10-21 04:34:00,
2013-10-21 00:40:00,53.7,43.0,29.93,SSW,193,8.0,12.0,67,0.00,,,0.00,Wunderground v.1.15,2013-10-21 04:40:00,
2013-10-21 00:45:00,53.7,43.0,29.92,SW,217,8.0,12.0,67,0.00,,,0.00,Wunderground v.1.15,2013-10-21 04:45:00,
2013-10-21 00:51:00,53.8,43.1,29.92,SSW,212,8.0,8.0,67,0.00,,,0.00,Wunderground v.1.15,2013-10-21 04:51:00,
2013-10-21 00:57:00,53.9,43.2,29.92,SW,230,8.0,12.0,67,0.00,,,0.00,Wunderground v.1.15,2013-10-21 04:57:00,
2013-10-21 01:03:00,53.9,43.2,29.92,SSW,204,9.0,9.0,67,0.00,,,0.00,Wunderground v.1.15,2013-10-21 05:03:00,
2013-10-21 01:09:00,53.9,43.2,29.92,SW,219,8.0,14.0,67,0.00,,,0.00,Wunderground v.1.15,2013-10-21 05:09:00,
2013-10-21 01:15:00,54.0,43.3,29.92,SSE,150,10.0,13.0,67,0.00,,,0.00,Wunderground v.1.15,2013-10-21 05:15:00,
2013-10-21 01:21:00,53.9,43.2,29.92,SSW,200,10.0,14.0,67,0.00,,,0.00,Wunderground v.1.15,2013-10-21 05:21:00,
2013-10-21 01:26:00,53.8,43.1,29.92,SW,228,8.0,15.0,67,0.00,,,0.00,Wunderground v.1.15,2013-10-21 05:26:00,
2013-10-21 01:31:00,53.8,43.1,29.92,SSW,207,9.0,9.0,67,0.00,,,0.00,Wunderground v.1.15,2013-10-21 05:31:00,
2013-10-21 01:37:00,53.7,43.0,29.92,WSW,239,9.0,9.0,67,0.00,,,0.00,Wunderground v.1.15,2013-10-21 05:37:00,
2013-10-21 01:43:00,53.8,43.1,29.92,WSW,248,10.0,12.0,67,0.00,,,0.00,Wunderground v.1.15,2013-10-21 05:43:00,
2013-10-21 01:49:00,53.7,43.0,29.92,SSW,200,10.0,13.0,67,0.00,,,0.00,Wunderground v.1.15,2013-10-21 05:49:00,
2013-10-21 01:55:00,53.6,43.3,29.92,SSE,165,9.0,12.0,68,0.00,,,0.00,Wunderground v.1.15,2013-10-21 05:55:00,
2013-10-21 02:01:00,53.4,43.1,29.92,SW,221,8.0,9.0,68,0.00,,,0.00,Wunderground v.1.15,2013-10-21 06:01:00,
2013-10-21 02:07:00,53.3,43.0,29.92,SW,222,8.0,21.0,68,0.00,,,0.00,Wunderground v.1.15,2013-10-21 06:07:00,
2013-10-21 02:12:00,53.1,43.2,29.92,SSW,195,9.0,10.0,69,0.00,,,0.00,Wunderground v.1.15,2013-10-21 06:12:00,
2013-10-21 02:18:00,52.9,43.0,29.92,SSW,211,8.0,10.0,69,0.00,,,0.00,Wunderground v.1.15,2013-10-21 06:18:00,
2013-10-21 02:24:00,52.8,43.3,29.92,SW,228,8.0,13.0,70,0.00,,,0.00,Wunderground v.1.15,2013-10-21 06:24:00,
2013-10-21 02:29:00,52.6,43.1,29.92,SSW,204,8.0,13.0,70,0.00,,,0.00,Wunderground v.1.15,2013-10-21 06:29:00,
2013-10-21 02:35:00,52.4,42.9,29.92,SE,145,8.0,9.0,70,0.00,,,0.00,Wunderground v.1.15,2013-10-21 06:35:00,
2013-10-21 02:41:00,52.2,43.1,29.92,SSW,208,8.0,8.0,71,0.00,,,0.00,Wunderground v.1.15,2013-10-21 06:41:00,
2013-10-21 02:47:00,52.1,43.0,29.92,SSW,205,8.0,13.0,71,0.00,,,0.00,Wunderground v.1.15,2013-10-21 06:47:00,
2013-10-21 02:53:00,51.9,42.8,29.92,South,170,8.0,10.0,71,0.00,,,0.00,Wunderground v.1.15,2013-10-21 06:53:00,
2013-10-21 02:59:00,51.6,42.9,29.92,South,190,7.0,11.0,72,0.00,,,0.00,Wunderground v.1.15,2013-10-21 06:59:00,
2013-10-21 03:05:00,51.4,42.7,29.92,SW,218,7.0,9.0,72,0.00,,,0.00,Wunderground v.1.15,2013-10-21 07:05:00,
2013-10-21 03:10:00,51.1,42.7,29.92,SSW,208,7.0,9.0,73,0.00,,,0.00,Wunderground v.1.15,2013-10-21 07:10:00,
2013-10-21 03:16:00,50.9,42.6,29.92,SSW,210,7.0,9.0,73,0.00,,,0.00,Wunderground v.1.15,2013-10-21 07:16:00,
2013-10-21 03:22:00,50.8,42.5,29.92,SSW,212,7.0,11.0,73,0.00,,,0.00,Wunderground v.1.15,2013-10-21 07:22:00,
2013-10-21 03:28:00,50.7,42.7,29.92,South,174,7.0,11.0,74,0.00,,,0.00,Wunderground v.1.15,2013-10-21 07:28:00,
2013-10-21 03:34:00,50.6,42.6,29.92,SSW,203,7.0,8.0,74,0.00,,,0.00,Wunderground v.1.15,2013-10-21 07:34:00,
2013-10-21 03:40:00,50.5,42.5,29.92,SW,217,7.0,11.0,74,0.00,,,0.00,Wunderground v.1.15,2013-10-21 07:40:00,
2013-10-21 03:46:00,50.3,42.3,29.92,SSW,204,7.0,12.0,74,0.00,,,0.00,Wunderground v.1.15,2013-10-21 07:46:00,
2013-10-21 03:52:00,50.2,42.6,29.92,SSW,193,8.0,10.0,75,0.00,,,0.00,Wunderground v.1.15,2013-10-21 07:52:00,
2013-10-21 03:57:00,50.1,42.5,29.92,SSW,199,8.0,10.0,75,0.00,,,0.00,Wunderground v.1.15,2013-10-21 07:57:00,
2013-10-21 04:02:00,50.0,42.4,29.92,SSW,207,8.0,9.0,75,0.00,,,0.00,Wunderground v.1.15,2013-10-21 08:02:00,
2013-10-21 04:08:00,49.8,42.2,29.91,WSW,243,7.0,13.0,75,0.00,,,0.00,Wunderground v.1.15,2013-10-21 08:08:00,
2013-10-21 04:14:00,49.7,42.4,29.92,South,190,7.0,8.0,76,0.00,,,0.00,Wunderground v.1.15,2013-10-21 08:14:00,
2013-10-21 04:20:00,49.5,42.2,29.91,SW,226,7.0,8.0,76,0.00,,,0.00,Wunderground v.1.15,2013-10-21 08:20:00,
2013-10-21 04:26:00,49.4,42.1,29.91,SSW,212,7.0,10.0,76,0.00,,,0.00,Wunderground v.1.15,2013-10-21 08:26:00,
2013-10-21 04:32:00,49.3,42.1,29.91,SSW,210,7.0,7.0,76,0.00,,,0.00,Wunderground v.1.15,2013-10-21 08:32:00,
2013-10-21 04:38:00,49.3,42.4,29.91,South,173,6.0,8.0,77,0.00,,,0.00,Wunderground v.1.15,2013-10-21 08:38:00,
2013-10-21 04:44:00,49.2,42.3,29.91,SSE,150,7.0,11.0,77,0.00,,,0.00,Wunderground v.1.15,2013-10-21 08:44:00,
2013-10-21 04:50:00,49.1,42.2,29.91,SSW,194,7.0,11.0,77,0.00,,,0.00,Wunderground v.1.15,2013-10-21 08:50:00,
2013-10-21 04:56:00,48.9,42.0,29.92,SSW,207,7.0,8.0,77,0.00,,,0.00,Wunderground v.1.15,2013-10-21 08:56:00,
2013-10-21 05:01:00,48.8,42.2,29.92,SSW,206,6.0,6.0,78,0.00,,,0.00,Wunderground v.1.15,2013-10-21 09:01:00,
2013-10-21 05:07:00,48.6,42.0,29.92,SSE,165,5.0,9.0,78,0.00,,,0.00,Wunderground v.1.15,2013-10-21 09:07:00,
2013-10-21 05:13:00,48.4,42.2,29.92,SSW,211,5.0,7.0,79,0.00,,,0.00,Wunderground v.1.15,2013-10-21 09:13:00,
2013-10-21 05:19:00,48.2,42.0,29.92,SSW,200,5.0,7.0,79,0.00,,,0.00,Wunderground v.1.15,2013-10-21 09:19:00,
2013-10-21 05:25:00,48.0,42.1,29.92,SSE,156,4.0,8.0,80,0.00,,,0.00,Wunderground v.1.15,2013-10-21 09:25:00,
2013-10-21 05:31:00,47.9,42.0,29.92,SW,224,5.0,5.0,80,0.00,,,0.00,Wunderground v.1.15,2013-10-21 09:31:00,
2013-10-21 05:37:00,47.7,41.8,29.92,SSE,158,5.0,5.0,80,0.00,,,0.00,Wunderground v.1.15,2013-10-21 09:37:00,
2013-10-21 05:43:00,47.6,42.1,29.92,SSE,150,5.0,6.0,81,0.00,,,0.00,Wunderground v.1.15,2013-10-21 09:43:00,
2013-10-21 05:48:00,47.4,41.9,29.92,SSW,210,5.0,6.0,81,0.00,,,0.00,Wunderground v.1.15,2013-10-21 09:48:00,
2013-10-21 05:54:00,47.3,42.1,29.92,SSW,199,5.0,7.0,82,0.00,,,0.00,Wunderground v.1.15,2013-10-21 09:54:00,
2013-10-21 05:59:00,47.3,42.1,29.92,SSW,200,6.0,9.0,82,0.00,,,0.00,Wunderground v.1.15,2013-10-21 09:59:00,
2013-10-21 06:05:00,47.2,42.0,29.92,South,169,6.0,6.0,82,0.00,,,0.00,Wunderground v.1.15,2013-10-21 10:05:00,
2013-10-21 06:11:00,47.1,41.9,29.92,South,191,5.0,6.0,82,0.00,,,0.00,Wunderground v.1.15,2013-10-21 10:11:00,
2013-10-21 06:17:00,47.1,41.9,29.92,South,186,6.0,8.0,82,0.00,,,0.00,Wunderground v.1.15,2013-10-21 10:17:00,
2013-10-21 06:22:00,47.1,41.9,29.92,SSW,203,6.0,8.0,82,0.00,,,0.00,Wunderground v.1.15,2013-10-21 10:22:00,
2013-10-21 06:28:00,47.1,41.9,29.92,SW,224,6.0,9.0,82,0.00,,,0.00,Wunderground v.1.15,2013-10-21 10:28:00,
2013-10-21 06:34:00,47.0,42.1,29.93,South,176,6.0,6.0,83,0.00,,,0.00,Wunderground v.1.15,2013-10-21 10:34:00,
2013-10-21 06:39:00,46.9,42.0,29.92,SSW,197,6.0,6.0,83,0.00,,,0.00,Wunderground v.1.15,2013-10-21 10:39:00,
2013-10-21 06:45:00,46.8,41.9,29.92,SSW,208,5.0,7.0,83,0.00,,,0.00,Wunderground v.1.15,2013-10-21 10:45:00,
2013-10-21 06:51:00,46.7,41.8,29.93,South,187,6.0,6.0,83,0.00,,,0.00,Wunderground v.1.15,2013-10-21 10:51:00,
2013-10-21 06:57:00,46.6,41.7,29.92,SSW,194,5.0,9.0,83,0.00,,,0.00,Wunderground v.1.15,2013-10-21 10:57:00,
2013-10-21 07:03:00,46.4,41.8,29.93,SW,229,5.0,5.0,84,0.00,,,0.00,Wunderground v.1.15,2013-10-21 11:03:00,
2013-10-21 07:08:00,46.3,41.7,29.93,South,184,4.0,6.0,84,0.00,,,0.00,Wunderground v.1.15,2013-10-21 11:08:00,
2013-10-21 07:14:00,46.1,41.5,29.93,SSW,203,4.0,5.0,84,0.00,,,0.00,Wunderground v.1.15,2013-10-21 11:14:00,
2013-10-21 07:20:00,46.1,41.8,29.93,SSW,200,4.0,7.0,85,0.00,,,0.00,Wunderground v.1.15,2013-10-21 11:20:00,
2013-10-21 07:26:00,46.0,41.7,29.92,South,183,5.0,6.0,85,0.00,,,0.00,Wunderground v.1.15,2013-10-21 11:26:00,
2013-10-21 07:32:00,46.1,41.8,29.92,SW,215,5.0,6.0,85,0.00,,,0.00,Wunderground v.1.15,2013-10-21 11:32:00,
2013-10-21 07:38:00,46.1,41.8,29.93,SSE,155,5.0,6.0,85,0.00,,,0.00,Wunderground v.1.15,2013-10-21 11:38:00,
2013-10-21 07:44:00,46.0,41.7,29.93,South,174,4.0,5.0,85,0.00,,,0.00,Wunderground v.1.15,2013-10-21 11:44:00,
2013-10-21 07:50:00,46.0,41.7,29.92,SW,225,4.0,6.0,85,0.00,,,0.00,Wunderground v.1.15,2013-10-21 11:50:00,
2013-10-21 07:56:00,46.0,41.7,29.93,SW,231,4.0,6.0,85,0.00,,,0.00,Wunderground v.1.15,2013-10-21 11:56:00,
2013-10-21 08:01:00,46.0,41.7,29.93,SSW,195,4.0,5.0,85,0.00,,,0.00,Wunderground v.1.15,2013-10-21 12:01:00,
2013-10-21 08:07:00,45.9,41.6,29.93,SW,219,4.0,7.0,85,0.00,,,0.00,Wunderground v.1.15,2013-10-21 12:07:00,
2013-10-21 08:13:00,45.9,41.6,29.93,SSW,204,4.0,7.0,85,0.00,,,0.00,Wunderground v.1.15,2013-10-21 12:13:00,
2013-10-21 08:19:00,45.9,41.6,29.93,South,191,4.0,7.0,85,0.00,,,0.00,Wunderground v.1.15,2013-10-21 12:19:00,
2013-10-21 08:25:00,46.1,41.8,29.93,SSW,211,5.0,6.0,85,0.00,,,0.00,Wunderground v.1.15,2013-10-21 12:25:00,
2013-10-21 08:31:00,46.3,42.0,29.93,SSE,159,5.0,7.0,85,0.00,,,0.00,Wunderground v.1.15,2013-10-21 12:31:00,
2013-10-21 08:37:00,46.6,42.3,29.93,WSW,240,5.0,7.0,85,0.00,,,0.00,Wunderground v.1.15,2013-10-21 12:37:00,
2013-10-21 08:43:00,46.8,42.2,29.94,SSE,165,5.0,5.0,84,0.00,,,0.00,Wunderground v.1.15,2013-10-21 12:43:00,
2013-10-21 08:48:00,47.2,42.6,29.94,SSW,208,5.0,7.0,84,0.00,,,0.00,Wunderground v.1.15,2013-10-21 12:48:00,
2013-10-21 08:54:00,47.7,42.8,29.94,SSE,168,5.0,6.0,83,0.00,,,0.00,Wunderground v.1.15,2013-10-21 12:54:00,
2013-10-21 09:01:00,48.2,43.0,29.94,SSE,152,5.0,5.0,82,0.00,,,0.00,Wunderground v.1.15,2013-10-21 13:01:00,
2013-10-21 09:07:00,48.2,43.0,29.94,SW,224,5.0,9.0,82,0.00,,,0.00,Wunderground v.1.15,2013-10-21 13:07:00,
2013-10-21 09:13:00,48.3,43.1,29.94,SSE,158,5.0,6.0,82,0.00,,,0.00,Wunderground v.1.15,2013-10-21 13:13:00,
2013-10-21 09:19:00,48.4,43.2,29.94,SW,227,5.0,7.0,82,0.00,,,0.00,Wunderground v.1.15,2013-10-21 13:19:00,
2013-10-21 09:25:00,48.9,43.3,29.94,SW,232,6.0,12.0,81,0.00,,,0.00,Wunderground v.1.15,2013-10-21 13:25:00,
2013-10-21 09:31:00,49.0,43.1,29.95,SE,128,7.0,8.0,80,0.00,,,0.00,Wunderground v.1.15,2013-10-21 13:31:00,
2013-10-21 09:37:00,49.1,43.5,29.94,South,185,6.0,8.0,81,0.00,,,0.00,Wunderground v.1.15,2013-10-21 13:37:00,
2013-10-21 09:43:00,49.6,43.7,29.94,SW,219,5.0,7.0,80,0.00,,,0.00,Wunderground v.1.15,2013-10-21 13:43:00,
2013-10-21 09:48:00,50.1,43.8,29.94,SW,230,6.0,7.0,79,0.00,,,0.00,Wunderground v.1.15,2013-10-21 13:48:00,
2013-10-21 09:54:00,50.6,44.0,29.94,South,190,6.0,7.0,78,0.00,,,0.00,Wunderground v.1.15,2013-10-21 13:54:00,
2013-10-21 10:01:00,51.1,44.1,29.94,SSW,212,6.0,6.0,77,0.00,,,0.00,Wunderground v.1.15,2013-10-21 14:01:00,
2013-10-21 10:07:00,51.3,44.3,29.94,WSW,244,5.0,7.0,77,0.00,,,0.00,Wunderground v.1.15,2013-10-21 14:07:00,
2013-10-21 10:13:00,51.4,44.1,29.94,SW,228,6.0,9.0,76,0.00,,,0.00,Wunderground v.1.15,2013-10-21 14:13:00,
2013-10-21 10:19:00,51.4,44.4,29.94,SW,222,6.0,9.0,77,0.00,,,0.00,Wunderground v.1.15,2013-10-21 14:19:00,
2013-10-21 10:24:00,51.8,44.8,29.94,SW,217,5.0,7.0,77,0.00,,,0.00,Wunderground v.1.15,2013-10-21 14:24:00,
2013-10-21 10:30:00,52.1,45.1,29.94,SW,229,6.0,11.0,77,0.00,,,0.00,Wunderground v.1.15,2013-10-21 14:30:00,
2013-10-21 10:36:00,52.5,45.2,29.94,SSW,201,7.0,9.0,76,0.00,,,0.00,Wunderground v.1.15,2013-10-21 14:36:00,
2013-10-21 10:42:00,52.9,44.8,29.94,SW,231,7.0,10.0,74,0.00,,,0.00,Wunderground v.1.15,2013-10-21 14:42:00,
2013-10-21 10:48:00,52.9,45.2,29.94,SW,228,7.0,11.0,75,0.00,,,0.00,Wunderground v.1.15,2013-10-21 14:48:00,
2013-10-21 10:54:00,53.1,45.4,29.94,SW,215,6.0,7.0,75,0.00,,,0.00,Wunderground v.1.15,2013-10-21 14:54:00,
2013-10-21 11:01:00,53.5,45.1,29.94,SW,215,8.0,12.0,73,0.00,,,0.00,Wunderground v.1.15,2013-10-21 15:01:00,
2013-10-21 11:07:00,54.0,45.5,29.94,SW,218,9.0,12.0,73,0.00,,,0.00,Wunderground v.1.15,2013-10-21 15:07:00,
2013-10-21 11:13:00,54.4,45.6,29.93,SW,228,9.0,9.0,72,0.00,,,0.00,Wunderground v.1.15,2013-10-21 15:13:00,
2013-10-21 11:19:00,54.8,45.9,29.93,SW,229,9.0,11.0,72,0.00,,,0.00,Wunderground v.1.15,2013-10-21 15:19:00,
2013-10-21 11:25:00,54.7,45.5,29.93,SSW,198,8.0,12.0,71,0.00,,,0.00,Wunderground v.1.15,2013-10-21 15:25:00,
2013-10-21 11:31:00,54.3,45.5,29.93,SW,229,9.0,12.0,72,0.00,,,0.00,Wunderground v.1.15,2013-10-21 15:31:00,
2013-10-21 11:37:00,53.9,45.4,29.93,SSW,212,9.0,12.0,73,0.00,,,0.00,Wunderground v.1.15,2013-10-21 15:37:00,
2013-10-21 11:42:00,53.8,45.3,29.94,West,260,9.0,9.0,73,0.00,,,0.00,Wunderground v.1.15,2013-10-21 15:42:00,
2013-10-21 11:48:00,53.6,45.5,29.93,West,269,6.0,9.0,74,0.00,,,0.00,Wunderground v.1.15,2013-10-21 15:48:00,
2013-10-21 11:54:00,53.4,45.3,29.94,WSW,246,6.0,7.0,74,0.00,,,0.00,Wunderground v.1.15,2013-10-21 15:54:00,
2013-10-21 12:01:00,53.0,45.3,29.94,WSW,238,7.0,8.0,75,0.00,,,0.00,Wunderground v.1.15,2013-10-21 16:01:00,
2013-10-21 12:07:00,52.8,45.1,29.94,SW,231,8.0,11.0,75,0.00,,,0.00,Wunderground v.1.15,2013-10-21 16:07:00,
2013-10-21 12:13:00,52.7,45.3,29.94,SW,233,7.0,8.0,76,0.00,,,0.00,Wunderground v.1.15,2013-10-21 16:13:00,
2013-10-21 12:19:00,52.5,45.2,29.94,SW,229,6.0,8.0,76,0.00,,,0.00,Wunderground v.1.15,2013-10-21 16:19:00,
2013-10-21 12:25:00,52.3,45.0,29.94,WSW,245,7.0,10.0,76,0.00,,,0.00,Wunderground v.1.15,2013-10-21 16:25:00,
2013-10-21 12:31:00,52.1,45.1,29.94,WSW,246,8.0,8.0,77,0.00,,,0.00,Wunderground v.1.15,2013-10-21 16:31:00,
2013-10-21 12:37:00,52.0,45.4,29.94,WSW,240,7.0,11.0,78,0.00,,,0.00,Wunderground v.1.15,2013-10-21 16:37:00,
2013-10-21 12:42:00,52.0,45.4,29.94,West,262,6.0,7.0,78,0.00,,,0.00,Wunderground v.1.15,2013-10-21 16:42:00,
2013-10-21 12:48:00,51.9,45.3,29.94,WSW,253,6.0,7.0,78,0.00,,,0.00,Wunderground v.1.15,2013-10-21 16:48:00,
2013-10-21 12:54:00,51.8,45.2,29.93,WSW,246,5.0,8.0,78,0.00,,,0.00,Wunderground v.1.15,2013-10-21 16:54:00,
2013-10-21 13:01:00,51.6,45.3,29.93,SW,236,6.0,6.0,79,0.00,,,0.00,Wunderground v.1.15,2013-10-21 17:01:00,
2013-10-21 13:07:00,51.3,45.3,29.93,West,267,5.0,6.0,80,0.00,,,0.00,Wunderground v.1.15,2013-10-21 17:07:00,
2013-10-21 13:13:00,51.0,45.4,29.93,WSW,238,4.0,8.0,81,0.00,,,0.00,Wunderground v.1.15,2013-10-21 17:13:00,
2013-10-21 13:19:00,50.8,45.5,29.93,WSW,240,5.0,8.0,82,0.00,,,0.00,Wunderground v.1.15,2013-10-21 17:19:00,
2013-10-21 13:25:00,50.6,45.6,29.93,WSW,240,6.0,9.0,83,0.00,,,0.00,Wunderground v.1.15,2013-10-21 17:25:00,
2013-10-21 13:31:00,50.4,45.4,29.93,WSW,238,6.0,9.0,83,0.00,,,0.00,Wunderground v.1.15,2013-10-21 17:31:00,
2013-10-21 13:37:00,50.2,45.6,29.93,SW,226,5.0,9.0,84,0.00,,,0.00,Wunderground v.1.15,2013-10-21 17:37:00,
2013-10-21 13:42:00,50.1,45.5,29.92,South,183,5.0,5.0,84,0.00,,,0.00,Wunderground v.1.15,2013-10-21 17:42:00,
2013-10-21 13:48:00,50.0,45.7,29.93,WSW,250,5.0,5.0,85,0.00,,,0.00,Wunderground v.1.15,2013-10-21 17:48:00,
2013-10-21 13:54:00,49.8,45.5,29.93,WSW,250,4.0,5.0,85,0.00,,,0.00,Wunderground v.1.15,2013-10-21 17:54:00,
2013-10-21 14:01:00,49.7,45.7,29.92,SW,232,5.0,5.0,86,0.00,,,0.00,Wunderground v.1.15,2013-10-21 18:01:00,
2013-10-21 14:07:00,49.7,46.0,29.92,WSW,240,5.0,8.0,87,0.00,,,0.00,Wunderground v.1.15,2013-10-21 18:07:00,
2013-10-21 14:13:00,49.7,46.0,29.92,SSE,163,5.0,5.0,87,0.00,,,0.00,Wunderground v.1.15,2013-10-21 18:13:00,
2013-10-21 14:18:00,49.7,46.0,29.92,SSW,210,5.0,9.0,87,0.00,,,0.00,Wunderground v.1.15,2013-10-21 18:18:00,
2013-10-21 14:23:00,49.7,46.0,29.92,SSW,204,6.0,6.0,87,0.00,,,0.00,Wunderground v.1.15,2013-10-21 18:23:00,
2013-10-21 14:29:00,49.7,46.0,29.92,SW,228,6.0,8.0,87,0.00,,,0.00,Wunderground v.1.15,2013-10-21 18:29:00,
2013-10-21 14:35:00,49.7,46.0,29.92,SW,236,6.0,11.0,87,0.00,,,0.00,Wunderground v.1.15,2013-10-21 18:35:00,
2013-10-21 14:40:00,49.6,45.9,29.92,West,274,7.0,11.0,87,0.00,,,0.00,Wunderground v.1.15,2013-10-21 18:40:00,
2013-10-21 14:46:00,49.7,46.3,29.92,SW,236,8.0,10.0,88,0.00,,,0.00,Wunderground v.1.15,2013-10-21 18:46:00,
2013-10-21 14:52:00,49.8,46.1,29.91,SSW,200,7.0,9.0,87,0.00,,,0.00,Wunderground v.1.15,2013-10-21 18:52:00,
2013-10-21 14:58:00,50.0,46.9,29.91,South,186,6.0,9.0,89,0.00,,,0.00,Wunderground v.1.15,2013-10-21 18:58:00,
2013-10-21 15:04:00,49.9,46.2,29.91,SW,226,6.0,10.0,87,0.00,,,0.00,Wunderground v.1.15,2013-10-21 19:04:00,
2013-10-21 15:10:00,49.7,46.0,29.91,SW,228,8.0,12.0,87,0.00,,,0.00,Wunderground v.1.15,2013-10-21 19:10:00,
2013-10-21 15:16:00,49.8,46.4,29.91,WSW,240,8.0,10.0,88,0.00,,,0.00,Wunderground v.1.15,2013-10-21 19:16:00,
2013-10-21 15:22:00,49.7,46.3,29.91,WSW,248,7.0,8.0,88,0.00,,,0.00,Wunderground v.1.15,2013-10-21 19:22:00,
2013-10-21 15:28:00,49.7,46.0,29.91,SW,231,6.0,9.0,87,0.00,,,0.00,Wunderground v.1.15,2013-10-21 19:28:00,
2013-10-21 15:33:00,49.7,46.3,29.91,WSW,243,6.0,7.0,88,0.00,,,0.00,Wunderground v.1.15,2013-10-21 19:33:00,
2013-10-21 15:39:00,49.7,46.0,29.91,SW,226,7.0,9.0,87,0.00,,,0.00,Wunderground v.1.15,2013-10-21 19:39:00,
2013-10-21 15:44:00,49.7,46.3,29.91,WSW,240,8.0,11.0,88,0.00,,,0.00,Wunderground v.1.15,2013-10-21 19:44:00,
2013-10-21 15:50:00,49.7,46.3,29.91,West,264,7.0,11.0,88,0.00,,,0.00,Wunderground v.1.15,2013-10-21 19:50:00,
2013-10-21 15:56:00,49.8,46.1,29.91,WSW,244,6.0,8.0,87,0.00,,,0.00,Wunderground v.1.15,2013-10-21 19:56:00,
2013-10-21 16:02:00,49.6,45.6,29.91,West,270,6.0,7.0,86,0.00,,,0.00,Wunderground v.1.15,2013-10-21 20:02:00,
2013-10-21 16:07:00,49.4,45.1,29.91,WSW,238,7.0,12.0,85,0.00,,,0.00,Wunderground v.1.15,2013-10-21 20:07:00,
2013-10-21 16:13:00,49.2,44.6,29.92,West,270,7.0,11.0,84,0.00,,,0.00,Wunderground v.1.15,2013-10-21 20:13:00,
2013-10-21 16:19:00,48.9,44.3,29.91,West,262,6.0,11.0,84,0.00,,,0.00,Wunderground v.1.15,2013-10-21 20:19:00,
2013-10-21 16:24:00,48.8,44.2,29.91,WNW,298,6.0,10.0,84,0.00,,,0.00,Wunderground v.1.15,2013-10-21 20:24:00,
2013-10-21 16:30:00,48.6,44.0,29.91,WSW,257,6.0,10.0,84,0.00,,,0.00,Wunderground v.1.15,2013-10-21 20:30:00,
2013-10-21 16:36:00,48.4,43.8,29.91,West,259,6.0,6.0,84,0.00,,,0.00,Wunderground v.1.15,2013-10-21 20:36:00,
2013-10-21 16:42:00,48.2,43.9,29.91,WNW,285,6.0,8.0,85,0.00,,,0.00,Wunderground v.1.15,2013-10-21 20:42:00,
2013-10-21 16:48:00,48.0,43.7,29.91,WSW,240,6.0,9.0,85,0.00,,,0.00,Wunderground v.1.15,2013-10-21 20:48:00,
2013-10-21 16:54:00,47.9,43.3,29.91,West,267,5.0,10.0,84,0.00,,,0.00,Wunderground v.1.15,2013-10-21 20:54:00,
2013-10-21 16:59:00,47.9,43.6,29.91,WNW,297,5.0,10.0,85,0.00,,,0.00,Wunderground v.1.15,2013-10-21 20:59:00,
2013-10-21 17:05:00,48.0,43.4,29.92,WSW,253,5.0,13.0,84,0.00,,,0.00,Wunderground v.1.15,2013-10-21 21:05:00,
2013-10-21 17:11:00,47.9,42.7,29.92,NW,312,7.0,10.0,82,0.00,,,0.00,Wunderground v.1.15,2013-10-21 21:11:00,
2013-10-21 17:16:00,47.8,42.6,29.92,WNW,290,8.0,12.0,82,0.00,,,0.00,Wunderground v.1.15,2013-10-21 21:16:00,
2013-10-21 17:22:00,47.7,42.5,29.92,WSW,246,8.0,8.0,82,0.00,,,0.00,Wunderground v.1.15,2013-10-21 21:22:00,
2013-10-21 17:28:00,47.6,42.1,29.93,WSW,243,7.0,10.0,81,0.00,,,0.00,Wunderground v.1.15,2013-10-21 21:28:00,
2013-10-21 17:34:00,47.3,41.8,29.93,WSW,252,9.0,11.0,81,0.00,,,0.00,Wunderground v.1.15,2013-10-21 21:34:00,
2013-10-21 17:40:00,47.2,41.3,29.93,West,259,10.0,12.0,80,0.00,,,0.00,Wunderground v.1.15,2013-10-21 21:40:00,
2013-10-21 17:46:00,47.2,41.3,29.93,WSW,245,9.0,13.0,80,0.00,,,0.00,Wunderground v.1.15,2013-10-21 21:46:00,
2013-10-21 17:52:00,47.3,41.4,29.93,West,269,8.0,10.0,80,0.00,,,0.00,Wunderground v.1.15,2013-10-21 21:52:00,
2013-10-21 17:58:00,47.4,41.2,29.94,WSW,253,8.0,10.0,79,0.00,,,0.00,Wunderground v.1.15,2013-10-21 21:58:00,
2013-10-21 18:04:00,47.5,40.6,29.94,WSW,252,7.0,16.0,77,0.00,,,0.00,Wunderground v.1.15,2013-10-21 22:04:00,
2013-10-21 18:10:00,47.4,40.2,29.94,WSW,244,9.0,16.0,76,0.00,,,0.00,Wunderground v.1.15,2013-10-21 22:10:00,
2013-10-21 18:15:00,47.2,40.0,29.94,West,273,9.0,10.0,76,0.00,,,0.00,Wunderground v.1.15,2013-10-21 22:15:00,
2013-10-21 18:21:00,47.2,39.7,29.94,West,259,8.0,9.0,75,0.00,,,0.00,Wunderground v.1.15,2013-10-21 22:21:00,
2013-10-21 18:27:00,47.0,39.5,29.94,WSW,253,9.0,13.0,75,0.00,,,0.00,Wunderground v.1.15,2013-10-21 22:27:00,
2013-10-21 18:33:00,46.9,39.4,29.94,WNW,292,8.0,8.0,75,0.00,,,0.00,Wunderground v.1.15,2013-10-21 22:33:00,
2013-10-21 18:39:00,46.8,39.3,29.95,West,271,6.0,10.0,75,0.00,,,0.00,Wunderground v.1.15,2013-10-21 22:39:00,
2013-10-21 18:45:00,46.6,39.1,29.95,NW,304,6.0,7.0,75,0.00,,,0.00,Wunderground v.1.15,2013-10-21 22:45:00,
2013-10-21 18:50:00,46.4,38.9,29.95,West,278,5.0,7.0,75,0.00,,,0.00,Wunderground v.1.15,2013-10-21 22:50:00,
2013-10-21 18:56:00,46.3,38.8,29.95,WSW,250,5.0,7.0,75,0.00,,,0.00,Wunderground v.1.15,2013-10-21 22:56:00,
2013-10-21 19:01:00,46.1,38.3,29.95,West,274,6.0,6.0,74,0.00,,,0.00,Wunderground v.1.15,2013-10-21 23:01:00,
2013-10-21 19:07:00,46.0,38.2,29.95,SW,228,7.0,9.0,74,0.00,,,0.00,Wunderground v.1.15,2013-10-21 23:07:00,
2013-10-21 19:13:00,45.6,38.1,29.96,SW,236,5.0,5.0,75,0.00,,,0.00,Wunderground v.1.15,2013-10-21 23:13:00,
2013-10-21 19:19:00,45.4,37.6,29.96,West,259,5.0,11.0,74,0.00,,,0.00,Wunderground v.1.15,2013-10-21 23:19:00,
2013-10-21 19:25:00,45.3,37.8,29.96,WNW,284,5.0,6.0,75,0.00,,,0.00,Wunderground v.1.15,2013-10-21 23:25:00,
2013-10-21 19:31:00,45.0,37.2,29.96,West,260,5.0,5.0,74,0.00,,,0.00,Wunderground v.1.15,2013-10-21 23:31:00,
2013-10-21 19:37:00,44.7,37.3,29.96,WNW,291,4.0,5.0,75,0.00,,,0.00,Wunderground v.1.15,2013-10-21 23:37:00,
2013-10-21 19:43:00,44.5,37.1,29.96,West,281,3.0,5.0,75,0.00,,,0.00,Wunderground v.1.15,2013-10-21 23:43:00,
2013-10-21 19:49:00,44.2,37.1,29.96,WSW,248,3.0,6.0,76,0.00,,,0.00,Wunderground v.1.15,2013-10-21 23:49:00,
2013-10-21 19:55:00,44.0,36.9,29.96,WSW,257,3.0,5.0,76,0.00,,,0.00,Wunderground v.1.15,2013-10-21 23:55:00,
2013-10-21 20:01:00,43.9,36.5,29.97,West,263,4.0,4.0,75,0.00,,,0.00,Wunderground v.1.15,2013-10-22 00:01:00,
2013-10-21 20:07:00,43.7,36.3,29.97,West,266,4.0,5.0,75,0.00,,,0.00,Wunderground v.1.15,2013-10-22 00:07:00,
2013-10-21 20:13:00,43.6,35.9,29.96,West,266,3.0,5.0,74,0.00,,,0.00,Wunderground v.1.15,2013-10-22 00:13:00,
2013-10-21 20:19:00,43.3,35.9,29.96,SW,214,3.0,5.0,75,0.00,,,0.00,Wunderground v.1.15,2013-10-22 00:19:00,
2013-10-21 20:24:00,43.0,35.6,29.97,SW,227,3.0,5.0,75,0.00,,,0.00,Wunderground v.1.15,2013-10-22 00:24:00,
2013-10-21 20:30:00,42.8,35.8,29.97,WSW,238,3.0,5.0,76,0.00,,,0.00,Wunderground v.1.15,2013-10-22 00:30:00,
2013-10-21 20:35:00,42.6,35.2,29.96,SW,233,3.0,5.0,75,0.00,,,0.00,Wunderground v.1.15,2013-10-22 00:35:00,
2013-10-21 20:40:00,42.5,35.1,29.97,WSW,253,3.0,6.0,75,0.00,,,0.00,Wunderground v.1.15,2013-10-22 00:40:00,
2013-10-21 20:45:00,42.8,34.7,29.97,WSW,240,5.0,7.0,73,0.00,,,0.00,Wunderground v.1.15,2013-10-22 00:45:00,
2013-10-21 20:51:00,42.8,34.7,29.97,WNW,285,5.0,5.0,73,0.00,,,0.00,Wunderground v.1.15,2013-10-22 00:51:00,
2013-10-21 20:57:00,42.9,34.8,29.97,SW,218,5.0,9.0,73,0.00,,,0.00,Wunderground v.1.15,2013-10-22 00:57:00,
2013-10-21 21:03:00,42.9,34.5,29.97,West,266,5.0,6.0,72,0.00,,,0.00,Wunderground v.1.15,2013-10-22 01:03:00,
2013-10-21 21:09:00,42.7,34.3,29.97,West,281,5.0,6.0,72,0.00,,,0.00,Wunderground v.1.15,2013-10-22 01:09:00,
2013-10-21 21:15:00,42.6,34.2,29.97,WNW,294,4.0,7.0,72,0.00,,,0.00,Wunderground v.1.15,2013-10-22 01:15:00,
2013-10-21 21:21:00,42.4,34.0,29.97,WSW,243,4.0,4.0,72,0.00,,,0.00,Wunderground v.1.15,2013-10-22 01:21:00,
2013-10-21 21:27:00,42.2,33.8,29.97,West,260,4.0,7.0,72,0.00,,,0.00,Wunderground v.1.15,2013-10-22 01:27:00,
2013-10-21 21:32:00,42.0,34.0,29.97,SW,224,4.0,5.0,73,0.00,,,0.00,Wunderground v.1.15,2013-10-22 01:32:00,
2013-10-21 21:37:00,41.8,33.8,29.97,WNW,290,4.0,5.0,73,0.00,,,0.00,Wunderground v.1.15,2013-10-22 01:37:00,
2013-10-21 21:43:00,41.7,33.7,29.97,WSW,245,4.0,7.0,73,0.00,,,0.00,Wunderground v.1.15,2013-10-22 01:43:00,
2013-10-21 21:49:00,41.7,33.3,29.98,WNW,289,5.0,7.0,72,0.00,,,0.00,Wunderground v.1.15,2013-10-22 01:49:00,
2013-10-21 21:55:00,41.7,33.3,29.98,WSW,256,5.0,6.0,72,0.00,,,0.00,Wunderground v.1.15,2013-10-22 01:55:00,
2013-10-21 22:01:00,41.6,33.2,29.98,WNW,285,6.0,6.0,72,0.00,,,0.00,Wunderground v.1.15,2013-10-22 02:01:00,
2013-10-21 22:04:00,41.5,33.1,29.99,West,274,6.0,8.0,72,0.00,,,0.00,Wunderground v.1.15,2013-10-22 02:04:00,
2013-10-21 22:09:00,41.5,32.8,29.99,WNW,299,5.0,12.0,71,0.00,,,0.00,Wunderground v.1.15,2013-10-22 02:09:00,
2013-10-21 22:15:00,41.7,31.9,30.00,NNW,327,7.0,15.0,68,0.00,,,0.00,Wunderground v.1.15,2013-10-22 02:15:00,
2013-10-21 22:21:00,41.5,31.4,29.99,NW,315,8.0,8.0,67,0.00,,,0.00,Wunderground v.1.15,2013-10-22 02:21:00,
2013-10-21 22:27:00,41.3,30.8,30.00,NW,315,7.0,11.0,66,0.00,,,0.00,Wunderground v.1.15,2013-10-22 02:27:00,
2013-10-21 22:32:00,41.0,30.9,30.00,WNW,284,6.0,7.0,67,0.00,,,0.00,Wunderground v.1.15,2013-10-22 02:32:00,
2013-10-21 22:38:00,40.7,30.2,30.00,NW,307,6.0,10.0,66,0.00,,,0.00,Wunderground v.1.15,2013-10-22 02:38:00,
2013-10-21 22:44:00,40.5,30.0,30.00,NW,310,7.0,7.0,66,0.00,,,0.00,Wunderground v.1.15,2013-10-22 02:44:00,
2013-10-21 22:50:00,40.2,29.4,30.00,WNW,299,6.0,8.0,65,0.00,,,0.00,Wunderground v.1.15,2013-10-22 02:50:00,
2013-10-21 22:55:00,40.1,29.3,30.00,West,260,5.0,8.0,65,0.00,,,0.00,Wunderground v.1.15,2013-10-22 02:55:00,
2013-10-21 23:01:00,39.9,29.1,30.00,West,262,5.0,5.0,65,0.00,,,0.00,Wunderground v.1.15,2013-10-22 03:01:00,
2013-10-21 23:07:00,39.8,29.0,30.00,WNW,287,6.0,11.0,65,0.00,,,0.00,Wunderground v.1.15,2013-10-22 03:07:00,
2013-10-21 23:13:00,39.8,29.4,30.00,WNW,283,6.0,6.0,66,0.00,,,0.00,Wunderground v.1.15,2013-10-22 03:13:00,
2013-10-21 23:19:00,39.6,29.5,30.00,NW,316,5.0,8.0,67,0.00,,,0.00,Wunderground v.1.15,2013-10-22 03:19:00,
2013-10-21 23:25:00,39.5,29.4,30.00,WSW,253,5.0,13.0,67,0.00,,,0.00,Wunderground v.1.15,2013-10-22 03:25:00,
2013-10-21 23:30:00,39.2,29.5,30.00,WSW,253,4.0,13.0,68,0.00,,,0.00,Wunderground v.1.15,2013-10-22 03:30:00,
2013-10-21 23:36:00,38.9,29.6,30.00,SW,232,4.0,8.0,69,0.00,,,0.00,Wunderground v.1.15,2013-10-22 03:36:00,
2013-10-21 23:42:00,38.6,29.7,30.00,WSW,257,5.0,5.0,70,0.00,,,0.00,Wunderground v.1.15,2013-10-22 03:42:00,
2013-10-21 23:48:00,38.4,29.5,30.01,SW,231,5.0,8.0,70,0.00,,,0.00,Wunderground v.1.15,2013-10-22 03:48:00,
2013-10-21 23:54:00,38.2,29.3,30.00,WSW,253,5.0,6.0,70,0.00,,,0.00,Wunderground v.1.15,2013-10-22 03:54:00,